#timestamp,LO_Frequency,Hit,StdDev 
1513191615.1,286046999.4,N
1513191616.0,286046999.4,N
1513191635.8,286046998.6,N
1513191655.7,286046998.3,N
1513191675.5,286047000.3,N
1513191695.3,286047002.3,N
1513191715.2,286047000.4,N
1513191735.0,286046998.5,N
1513191735.9,286046998.5,N
1513191755.7,286046998.5,N
1513191775.6,286047000.7,N
1513191795.4,286047000.7,N
1513191815.3,286047000.3,N
1513191835.1,286047001.0,N
1513191836.0,286047001.0,N
1513191855.8,286046998.5,N
1513191875.7,286047000.5,N
1513191895.5,286046999.8,N
1513191915.4,286046999.7,N
1513191935.2,286046999.8,N
1513191955.0,286047000.6,N
1513191955.9,286047000.6,N
1513191975.8,286047001.0,N
1513191995.6,286047000.7,N
1513192015.6,286047001.0,N
1513192035.4,286047000.9,N
1513192055.3,286046998.6,N
1513192075.1,286047000.1,N
1513192095.9,286046999.7,N
1513192115.7,286046999.8,N
1513192135.5,286046999.9,N
1513192155.4,286047000.3,N
1513192175.2,286047000.5,N
1513192195.0,286047001.9,N
1513192195.9,286047001.9,N
1513192215.8,286047001.8,N
1513192235.6,286047001.8,N
1513192255.5,286047001.6,N
1513192275.3,286047002.3,N
1513192295.1,286047001.9,N
1513192315.9,286047000.3,N
1513192335.7,286047000.2,N
1513192355.5,286047000.6,N
1513192375.4,286046999.9,N
1513192395.2,286047000.0,N
1513192415.1,286047002.7,N
1513192416.0,286047002.7,N
1513192435.8,286047002.4,N
1513192455.6,286047002.4,N
1513192475.5,286047002.6,N
1513192495.3,286047002.3,N
1513192515.1,286047002.5,N
1513192535.9,286047004.4,Y
1513192555.7,286047000.3,P
1513192575.6,286047000.0,N
1513192595.4,286046998.2,P
1513192615.2,286046999.3,N
1513192635.1,286046999.4,N
1513192636.0,286046999.4,N
1513192655.8,286046998.4,N
1513192675.7,286046999.4,N
1513192695.5,286046999.6,N
1513192715.3,286046998.9,N
1513192735.2,286046998.6,N
1513192755.0,286047001.0,N
1513192755.9,286047001.0,N
1513192775.7,286047000.9,N
1513192795.6,286047002.5,N
1513192815.4,286047002.4,N
1513192835.3,286047002.3,N
1513192855.1,286046999.7,N
1513192856.0,286046999.7,N
1513192875.8,286047001.4,N
1513192895.7,286047002.1,N
1513192915.5,286047001.8,N
1513192935.3,286047002.2,N
1513192955.2,286047002.5,N
1513192975.0,286046999.8,N
1513192975.9,286046999.8,N
1513192995.8,286047002.2,N
1513193015.6,286047001.5,N
1513193035.4,286047002.5,N
1513193055.3,286047002.2,N
1513193075.1,286046999.9,N
1513193095.8,286046999.8,N
1513193115.7,286047000.9,N
1513193135.5,286047002.3,N
1513193155.4,286047000.3,N
1513193175.2,286047000.1,N
1513193195.0,286047000.1,N
1513193195.9,286047000.1,N
1513193245.8,286047004.3,E
1513193255.7,286046999.9,N
1513193275.6,286046997.6,P
1513193295.4,286046996.9,N
1513193315.2,286046997.0,N
1513193335.1,286046999.3,N
1513193336.0,286046999.3,N
1513193355.8,286046998.4,N
1513193375.7,286046997.1,N
1513193395.5,286046997.7,N
1513193415.3,286046995.1,Y
1513193435.2,286046999.2,P
1513193455.0,286046997.3,P
1513193455.9,286046997.3,P
1513193475.8,286046999.0,N
1513193495.6,286046996.9,Y
1513193515.4,286046998.5,P
1513193535.3,286047000.6,P
1513193555.1,286047001.1,N
1513193575.8,286047000.9,N
1513193595.7,286047001.1,N
1513193615.5,286047001.1,N
1513193635.4,286046998.5,N
1513193655.2,286046998.9,N
1513193675.0,286046999.0,N
1513193675.9,286046999.0,N
1513193695.8,286046998.8,N
1513193715.6,286046999.0,N
1513193735.4,286046999.2,N
1513193755.3,286046999.0,N
1513193775.1,286046999.3,N
1513193795.9,286047000.8,N
1513193815.7,286046998.7,N
1513193835.5,286046998.8,N
1513193855.4,286047000.6,N
1513193875.2,286047001.1,N
1513193895.0,286047000.6,N
1513193895.9,286047000.6,N
1513193915.8,286047000.8,N
1513193935.6,286046999.7,N
1513193955.5,286047000.1,N
1513193975.3,286047000.9,N
1513193995.1,286047000.9,N
1513194015.9,286046998.6,N
1513194035.7,286046998.6,N
1513194055.5,286046998.2,N
1513194075.4,286047000.7,N
1513194095.2,286046998.9,N
1513194115.1,286046999.4,N
1513194116.0,286046999.4,N
1513194135.8,286047000.1,N
1513194155.6,286046998.3,N
1513194175.5,286046998.7,N
1513194195.3,286047001.0,N
1513194215.2,286047000.5,N
1513194235.0,286046999.3,N
1513194235.9,286046999.3,N
1513194255.7,286046999.6,N
1513194275.6,286046998.4,N
1513194295.4,286046998.3,N
1513194315.3,286046998.2,N
1513194335.1,286046998.2,N
1513194355.8,286047000.7,N
1513194375.7,286047001.0,N
1513194395.5,286047000.2,N
1513194415.4,286047000.0,N
1513194435.2,286047002.1,N
1513194455.0,286047001.8,N
1513194455.9,286047001.8,N
1513194475.8,286047002.4,N
1513194495.6,286047002.3,N
1513194515.4,286047002.4,N
1513194535.3,286047000.2,N
1513194555.1,286046999.7,N
1513194575.9,286047000.0,N
1513194595.7,286047000.7,N
1513194615.5,286047000.5,N
1513194635.4,286046999.9,N
1513194655.2,286047000.5,N
1513194675.0,286047000.3,N
1513194675.9,286047000.3,N
1513194695.8,286046999.7,N
1513194715.6,286046999.7,N
1513194735.5,286047001.9,N
1513194755.3,286047002.4,N
1513194775.1,286047002.4,N
1513194795.9,286047002.5,N
1513194815.7,286047001.6,N
1513194835.6,286047002.5,N
1513194855.4,286047002.0,N
1513194875.2,286046999.8,N
1513194895.1,286047002.3,N
1513194896.0,286047002.3,N
1513194915.8,286047001.8,N
1513194935.6,286047002.7,N
1513194955.5,286047002.6,N
1513194975.3,286047000.0,N
1513194995.2,286047000.5,N
1513195015.9,286046999.9,N
1513195035.7,286047001.2,N
1513195055.6,286046998.1,N
1513195075.4,286046998.2,N
1513195095.2,286046999.5,N
1513195115.1,286046998.4,N
1513195116.0,286046998.4,N
1513195135.8,286047001.2,N
1513195155.7,286046999.7,N
1513195175.5,286047000.0,N
1513195195.3,286047001.1,N
